VKG4194 ESMS-EKRN

Flight info

Callsign VKG4194
Flight time 0h 16m
Altitude 10000
Route TELMO DCT UMVAP
Aircraft A321/M-SDE3FGHIRWY/LB1

Departure

Time 2026-05-06 03:50
Airport Malmö Sturup Airport (ESMS)

Arrival

Time 2026-05-06 04:06
Airport Bornholm Airport (EKRN)
Time Latitude Longitude Altitude Speed Heading
2026-05-06 03:31 55.54006 13.36695 235 ft 0 kts 353°
2026-05-06 03:32 55.54005 13.36695 235 ft 0 kts 353°
2026-05-06 03:41 55.54000 13.36696 231 ft 3 kts 353°
2026-05-06 03:41 55.53976 13.36701 231 ft 3 kts 353°
2026-05-06 03:42 55.53957 13.36705 233 ft 3 kts
2026-05-06 03:42 55.53936 13.36698 231 ft 3 kts 54°
2026-05-06 03:42 55.53932 13.36687 235 ft 3 kts 83°
2026-05-06 03:42 55.53935 13.36721 233 ft 0 kts 83°
2026-05-06 03:45 55.53940 13.36799 231 ft 12 kts 83°
2026-05-06 03:45 55.53950 13.36959 231 ft 14 kts 83°
2026-05-06 03:46 55.53962 13.37144 231 ft 14 kts 83°
2026-05-06 03:46 55.53971 13.37212 232 ft 5 kts 61°
2026-05-06 03:46 55.54030 13.37232 232 ft 0 kts 332°
2026-05-06 03:46 55.54040 13.37229 232 ft 8 kts 351°
2026-05-06 03:47 55.54144 13.37221 232 ft 0 kts 350°
2026-05-06 03:47 55.54204 13.37208 232 ft 18 kts 353°
2026-05-06 03:47 55.54354 13.37177 232 ft 23 kts 353°
2026-05-06 03:47 55.54496 13.37148 233 ft 18 kts 354°
2026-05-06 03:48 55.54603 13.37132 231 ft 4 kts
2026-05-06 03:48 55.54678 13.37174 231 ft 15 kts 23°
2026-05-06 03:48 55.54725 13.37210 231 ft 1 kts 23°
2026-05-06 03:48 55.54777 13.37260 236 ft 15 kts 45°
2026-05-06 03:49 55.54792 13.37360 235 ft 3 kts 110°
2026-05-06 03:49 55.54745 13.37391 234 ft 16 kts 169°
2026-05-06 03:49 55.54638 13.37414 231 ft 34 kts 173°
2026-05-06 03:49 55.53816 13.37582 241 ft 146 kts 173°
2026-05-06 03:50 55.53061 13.37734 381 ft 175 kts 174°
2026-05-06 03:50 55.51779 13.38016 1041 ft 187 kts 169°
2026-05-06 03:50 55.50452 13.38195 1897 ft 189 kts 172°
2026-05-06 03:50 55.49121 13.38455 2512 ft 200 kts 169°
2026-05-06 03:51 55.47700 13.38737 2822 ft 221 kts 171°
2026-05-06 03:51 55.46137 13.38978 3264 ft 231 kts 172°
2026-05-06 03:51 55.44439 13.39216 3635 ft 261 kts 173°
2026-05-06 03:51 55.42568 13.39466 4706 ft 270 kts 174°
2026-05-06 03:52 55.40717 13.39966 6053 ft 272 kts 160°
2026-05-06 03:52 55.39091 13.41656 7222 ft 276 kts 136°
2026-05-06 03:52 55.38010 13.44457 8315 ft 283 kts 113°
2026-05-06 03:52 55.37258 13.47716 9341 ft 293 kts 113°
2026-05-06 03:53 55.36490 13.51090 9750 ft 299 kts 114°
2026-05-06 03:53 55.35714 13.54500 9887 ft 301 kts 113°
2026-05-06 03:53 55.34935 13.57914 9928 ft 300 kts 113°
2026-05-06 03:53 55.34157 13.61295 9920 ft 299 kts 113°
2026-05-06 03:54 55.33372 13.64685 9916 ft 299 kts 114°
2026-05-06 03:54 55.32577 13.68081 9917 ft 301 kts 114°
2026-05-06 03:54 55.31778 13.71477 9919 ft 300 kts 114°
2026-05-06 03:54 55.30981 13.74865 9859 ft 300 kts 114°
2026-05-06 03:55 55.30190 13.78235 9725 ft 299 kts 114°
2026-05-06 03:55 55.29399 13.81608 9586 ft 299 kts 114°
2026-05-06 03:55 55.28606 13.84985 9451 ft 299 kts 114°
2026-05-06 03:55 55.27815 13.88349 9318 ft 298 kts 113°
2026-05-06 03:56 55.27028 13.91682 9183 ft 295 kts 113°
2026-05-06 03:56 55.26243 13.95000 9047 ft 295 kts 114°
2026-05-06 03:56 55.25456 13.98313 8917 ft 294 kts 114°
2026-05-06 03:56 55.24672 14.01621 8762 ft 293 kts 113°
2026-05-06 03:57 55.23889 14.04919 8268 ft 292 kts 113°
2026-05-06 03:57 55.23112 14.08174 7942 ft 286 kts 112°
2026-05-06 03:57 55.22360 14.11325 7670 ft 276 kts 112°
2026-05-06 03:57 55.21632 14.14371 6964 ft 268 kts 111°
2026-05-06 03:58 55.20913 14.17385 6178 ft 261 kts 111°
2026-05-06 03:58 55.20226 14.20264 5484 ft 251 kts 110°
2026-05-06 03:58 55.19552 14.23075 5185 ft 252 kts 110°
2026-05-06 03:58 55.18879 14.25872 4743 ft 248 kts 110°
2026-05-06 03:59 55.18216 14.28622 4308 ft 242 kts 110°
2026-05-06 03:59 55.17564 14.31334 3990 ft 242 kts 111°
2026-05-06 03:59 55.16931 14.33961 3929 ft 227 kts 111°
2026-05-06 03:59 55.16325 14.36420 3879 ft 214 kts 111°
2026-05-06 04:00 55.15717 14.38718 3786 ft 203 kts 112°
2026-05-06 04:00 55.15115 14.40891 3679 ft 194 kts 111°
2026-05-06 04:00 55.14570 14.43009 3592 ft 189 kts 111°
2026-05-06 04:00 55.14043 14.45114 3494 ft 188 kts 110°
2026-05-06 04:01 55.13508 14.47264 3400 ft 188 kts 110°
2026-05-06 04:01 55.12989 14.49349 3216 ft 185 kts 110°
2026-05-06 04:01 55.12477 14.51403 2966 ft 181 kts 110°
2026-05-06 04:01 55.11979 14.53402 2714 ft 178 kts 110°
2026-05-06 04:02 55.11488 14.55366 2484 ft 173 kts 110°
2026-05-06 04:02 55.11019 14.57242 2257 ft 163 kts 110°
2026-05-06 04:02 55.10580 14.58998 2026 ft 154 kts 110°
2026-05-06 04:02 55.10163 14.60668 1816 ft 147 kts 110°
2026-05-06 04:03 55.09762 14.62271 1616 ft 141 kts 110°
2026-05-06 04:03 55.09374 14.63820 1418 ft 137 kts 110°
2026-05-06 04:03 55.08999 14.65313 1254 ft 126 kts 110°
2026-05-06 04:03 55.08657 14.66676 1069 ft 122 kts 110°
2026-05-06 04:04 55.08307 14.68074 881 ft 122 kts 110°
2026-05-06 04:04 55.07966 14.69436 714 ft 123 kts 110°
2026-05-06 04:04 55.07615 14.70794 567 ft 123 kts 112°
2026-05-06 04:04 55.07282 14.72159 425 ft 125 kts 109°
2026-05-06 04:05 55.07114 14.72893 240 ft 130 kts 109°
2026-05-06 04:05 55.06753 14.74294 124 ft 129 kts 111°
2026-05-06 04:05 55.06582 14.74924 68 ft 125 kts 106°
2026-05-06 04:06 55.06425 14.75576 62 ft 107 kts 113°
2026-05-06 04:06 55.06242 14.76295 59 ft 30 kts 114°
2026-05-06 04:06 55.06193 14.76488 51 ft 15 kts 114°
2026-05-06 04:06 55.06178 14.76605 53 ft 6 kts 112°
2026-05-06 04:07 55.06167 14.76605 56 ft 1 kts 211°
2026-05-06 04:07 55.06177 14.76506 53 ft 18 kts 297°
2026-05-06 04:07 55.06226 14.76348 52 ft 6 kts 293°
2026-05-06 04:07 55.06270 14.76180 57 ft 25 kts 294°
2026-05-06 04:08 55.06342 14.75897 59 ft 26 kts 294°
2026-05-06 04:08 55.06428 14.75562 58 ft 32 kts 294°
2026-05-06 04:08 55.06517 14.75209 61 ft 23 kts 293°
2026-05-06 04:08 55.06577 14.74968 59 ft 12 kts 294°
2026-05-06 04:09 55.06645 14.74852 64 ft 21 kts 342°
2026-05-06 04:09 55.06757 14.74847 62 ft 17 kts 353°
2026-05-06 04:09 55.06798 14.74813 58 ft 14 kts 320°
2026-05-06 04:09 55.06837 14.74735 52 ft 6 kts 319°
2026-05-06 04:10 55.06877 14.74723 59 ft 7 kts 18°
2026-05-06 04:10 55.06879 14.74725 59 ft 0 kts 22°
2026-05-06 04:10 55.06882 14.74728 59 ft 3 kts 22°
2026-05-06 04:10 55.06902 14.74766 52 ft 5 kts 70°
2026-05-06 04:11 55.06903 14.74773 56 ft 3 kts 73°
2026-05-06 04:11 55.06909 14.74802 59 ft 0 kts 73°